Location: B?dimalle
(17.1788°N, 80.5377°E)
Time: 10:52:02
(UTC+00:00)

Tiros 1 despin weight - Pass Details

Date: 20 February 2026
Orbit: 556 x 593 km, 48.2° (Epoch: 10 March)

Event Time Altitude Azimuth Distance (km) Brightness Sun altitude
Rises 07:17:28 0° 240° (WSW) 2,764 ? 61.2°
Reaches altitude 10° 07:19:54 10° 250° (WSW) 1,860 ? 61.1°
Maximum altitude 07:23:44 32° 315° (NW) 966 ? 60.8°
Drops below altitude 10° 07:27:33 10° 20° (NNE) 1,842 ? 60.6°
Sets 07:29:58 0° 30° (NNE) 2,733 ? 60.4°
